GLO8001 SBCY-SBCF

Flight info

Callsign GLO8001
Flight time N/A
Altitude 39000
Route TORAB UZ8 MIMIP
Aircraft B738/M-V/N

Departure

Time 2026-04-27 21:57
Airport Várzea Grande–Marechal Rondon International Airport (SBCY)

Arrival

Time N/A
Airport Tancredo Neves International Airport (SBCF)
Time Latitude Longitude Altitude Speed Heading
2026-04-27 21:43 -15.65182 -56.11904 602 ft 0 kts 242°
2026-04-27 21:46 -15.65179 -56.11899 602 ft 3 kts 242°
2026-04-27 21:47 -15.65170 -56.11882 602 ft 3 kts 253°
2026-04-27 21:47 -15.65172 -56.11863 602 ft 3 kts 319°
2026-04-27 21:47 -15.65175 -56.11860 602 ft 0 kts 333°
2026-04-27 21:51 -15.65173 -56.11861 602 ft 1 kts 333°
2026-04-27 21:51 -15.65161 -56.11867 602 ft 2 kts 330°
2026-04-27 21:51 -15.65147 -56.11876 603 ft 2 kts 330°
2026-04-27 21:52 -15.65134 -56.11884 603 ft 2 kts 330°
2026-04-27 21:52 -15.65119 -56.11890 603 ft 2 kts 345°
2026-04-27 21:52 -15.65103 -56.11887 603 ft 3 kts 22°
2026-04-27 21:52 -15.65085 -56.11872 603 ft 4 kts 48°
2026-04-27 21:53 -15.65072 -56.11852 604 ft 6 kts 57°
2026-04-27 21:53 -15.65016 -56.11821 612 ft 9 kts 350°
2026-04-27 21:53 -15.64954 -56.11851 608 ft 11 kts 332°
2026-04-27 21:53 -15.64886 -56.11887 609 ft 11 kts 333°
2026-04-27 21:54 -15.64842 -56.11911 605 ft 11 kts 333°
2026-04-27 21:54 -15.64804 -56.11931 606 ft 11 kts 332°
2026-04-27 21:54 -15.64757 -56.11956 611 ft 12 kts 332°
2026-04-27 21:54 -15.64633 -56.12023 617 ft 18 kts 333°
2026-04-27 21:55 -15.64525 -56.12080 616 ft 14 kts 333°
2026-04-27 21:55 -15.64464 -56.12103 619 ft 13 kts 339°
2026-04-27 21:55 -15.64401 -56.12142 619 ft 3 kts 266°
2026-04-27 21:55 -15.64417 -56.12138 624 ft 3 kts 139°
2026-04-27 21:56 -15.64428 -56.12130 617 ft 0 kts 151°
2026-04-27 21:56 -15.64844 -56.11908 605 ft 107 kts 153°
2026-04-27 21:56 -15.65719 -56.11436 647 ft 172 kts 152°
2026-04-27 21:57 -15.66859 -56.10807 1242 ft 202 kts 152°
2026-04-27 21:57 -15.68120 -56.09979 1703 ft 225 kts 135°
2026-04-27 21:57 -15.68943 -56.08546 2312 ft 240 kts 111°
2026-04-27 21:57 -15.69296 -56.06802 2762 ft 257 kts 93°
2026-04-27 21:58 -15.69060 -56.04914 3366 ft 270 kts 79°
2026-04-27 21:58 -15.68613 -56.03004 4221 ft 272 kts 77°
2026-04-27 21:58 -15.68155 -56.01115 5076 ft 275 kts 76°
2026-04-27 21:58 -15.67694 -55.99176 5634 ft 277 kts 76°
2026-04-27 21:59 -15.67231 -55.97232 5942 ft 279 kts 76°
2026-04-27 21:59 -15.66738 -55.95281 5955 ft 280 kts 75°
2026-04-27 21:59 -15.66240 -55.93326 5971 ft 281 kts 76°
2026-04-27 21:59 -15.65744 -55.91368 5981 ft 281 kts 75°
2026-04-27 22:00 -15.65281 -55.89401 5965 ft 281 kts 83°
2026-04-27 22:00 -15.65477 -55.87408 6033 ft 281 kts 110°
2026-04-27 22:00 -15.66231 -55.85529 6628 ft 284 kts 114°
2026-04-27 22:00 -15.67051 -55.83661 7447 ft 284 kts 115°
2026-04-27 22:01 -15.67882 -55.81790 8213 ft 288 kts 115°
2026-04-27 22:01 -15.68725 -55.79888 8952 ft 292 kts 115°
2026-04-27 22:01 -15.69579 -55.77954 9707 ft 296 kts 115°
2026-04-27 22:01 -15.70438 -55.75997 10376 ft 303 kts 115°
2026-04-27 22:02 -15.71344 -55.73927 10569 ft 327 kts 114°
2026-04-27 22:02 -15.72308 -55.71715 10851 ft 344 kts 114°
2026-04-27 22:02 -15.73304 -55.69427 11445 ft 349 kts 114°
2026-04-27 22:02 -15.74307 -55.67119 12119 ft 352 kts 114°
2026-04-27 22:03 -15.75305 -55.64818 12785 ft 355 kts 114°
2026-04-27 22:03 -15.76324 -55.62467 13452 ft 359 kts 114°
2026-04-27 22:03 -15.77353 -55.60093 14052 ft 363 kts 114°
2026-04-27 22:03 -15.78393 -55.57692 14592 ft 367 kts 114°
2026-04-27 22:04 -15.79446 -55.55262 15158 ft 371 kts 114°
2026-04-27 22:04 -15.80510 -55.52803 15723 ft 374 kts 114°
2026-04-27 22:04 -15.81584 -55.50320 16234 ft 379 kts 114°
2026-04-27 22:04 -15.82670 -55.47808 16739 ft 384 kts 114°
2026-04-27 22:05 -15.83766 -55.45275 17324 ft 385 kts 114°
2026-04-27 22:05 -15.84868 -55.42725 17865 ft 389 kts 114°
2026-04-27 22:05 -15.85980 -55.40151 18341 ft 393 kts 113°
2026-04-27 22:05 -15.87089 -55.37582 18787 ft 396 kts 113°
2026-04-27 22:06 -15.88219 -55.34964 19257 ft 398 kts 113°
2026-04-27 22:06 -15.89357 -55.32328 19716 ft 401 kts 113°
2026-04-27 22:06 -15.90502 -55.29673 20145 ft 405 kts 113°
2026-04-27 22:06 -15.91658 -55.26991 20523 ft 409 kts 113°
2026-04-27 22:07 -15.92829 -55.24275 20920 ft 413 kts 113°
2026-04-27 22:07 -15.94007 -55.21541 21355 ft 416 kts 112°
2026-04-27 22:07 -15.95191 -55.18790 21782 ft 419 kts 112°
2026-04-27 22:07 -15.96387 -55.16013 22196 ft 422 kts 112°
2026-04-27 22:08 -15.97580 -55.13213 22599 ft 425 kts 111°
2026-04-27 22:08 -15.98625 -55.10332 22996 ft 427 kts 107°
2026-04-27 22:08 -15.99560 -55.07402 23395 ft 429 kts 105°
2026-04-27 22:08 -16.00465 -55.04431 23744 ft 432 kts 105°
2026-04-27 22:09 -16.01375 -55.01443 24075 ft 435 kts 105°
2026-04-27 22:09 -16.02302 -54.98444 24473 ft 435 kts 105°
2026-04-27 22:09 -16.03239 -54.95458 24859 ft 436 kts 106°
2026-04-27 22:09 -16.04192 -54.92452 25152 ft 439 kts 106°
2026-04-27 22:10 -16.05157 -54.89430 25447 ft 442 kts 106°
2026-04-27 22:10 -16.06130 -54.86389 25765 ft 444 kts 107°
2026-04-27 22:10 -16.07110 -54.83333 26088 ft 447 kts 107°
2026-04-27 22:10 -16.08095 -54.80260 26403 ft 449 kts 107°
2026-04-27 22:11 -16.09071 -54.77213 26696 ft 451 kts 107°
2026-04-27 22:11 -16.10065 -54.74104 26990 ft 454 kts 107°
2026-04-27 22:11 -16.11063 -54.70980 27270 ft 457 kts 107°
2026-04-27 22:11 -16.12066 -54.67838 27577 ft 458 kts 107°
2026-04-27 22:12 -16.13072 -54.64688 27886 ft 460 kts 107°
2026-04-27 22:12 -16.14084 -54.61515 28191 ft 462 kts 107°
2026-04-27 22:12 -16.15096 -54.58339 28476 ft 464 kts 107°
2026-04-27 22:12 -16.16114 -54.55145 28760 ft 466 kts 107°
2026-04-27 22:13 -16.17136 -54.51935 29037 ft 468 kts 107°
2026-04-27 22:13 -16.18161 -54.48712 29302 ft 470 kts 107°
2026-04-27 22:13 -16.19190 -54.45478 29590 ft 472 kts 107°
2026-04-27 22:13 -16.20222 -54.42231 29859 ft 474 kts 107°
2026-04-27 22:14 -16.21258 -54.38969 30097 ft 476 kts 107°
2026-04-27 22:14 -16.22298 -54.35692 30314 ft 477 kts 107°
2026-04-27 22:14 -16.23408 -54.32431 30533 ft 479 kts 110°
2026-04-27 22:14 -16.24636 -54.29197 30745 ft 481 kts 111°
2026-04-27 22:15 -16.25903 -54.26015 30953 ft 483 kts 112°
2026-04-27 22:15 -16.27222 -54.22746 31167 ft 484 kts 112°
2026-04-27 22:15 -16.28506 -54.19547 31383 ft 486 kts 111°
2026-04-27 22:15 -16.29801 -54.16289 31534 ft 488 kts 111°
2026-04-27 22:16 -16.31089 -54.13019 31798 ft 488 kts 111°
2026-04-27 22:16 -16.32368 -54.09751 32144 ft 486 kts 111°
2026-04-27 22:16 -16.33634 -54.06505 32477 ft 484 kts 111°
2026-04-27 22:16 -16.34899 -54.03253 32759 ft 484 kts 111°
2026-04-27 22:17 -16.36165 -53.99999 33015 ft 484 kts 111°
2026-04-27 22:17 -16.37428 -53.96753 33320 ft 483 kts 111°
2026-04-27 22:17 -16.38690 -53.93508 33664 ft 482 kts 111°
2026-04-27 22:17 -16.39947 -53.90276 33962 ft 481 kts 111°
2026-04-27 22:18 -16.41202 -53.87048 34187 ft 481 kts 111°
2026-04-27 22:18 -16.42456 -53.83821 34406 ft 481 kts 111°
2026-04-27 22:18 -16.43713 -53.80583 34663 ft 480 kts 111°
2026-04-27 22:18 -16.44965 -53.77358 34912 ft 480 kts 111°
2026-04-27 22:19 -16.46199 -53.74177 35137 ft 479 kts 111°
2026-04-27 22:19 -16.47447 -53.70956 35377 ft 479 kts 112°
2026-04-27 22:19 -16.48699 -53.67726 35557 ft 480 kts 112°
2026-04-27 22:19 -16.49950 -53.64496 35768 ft 479 kts 112°
2026-04-27 22:20 -16.51195 -53.61279 36037 ft 478 kts 112°
2026-04-27 22:20 -16.52438 -53.58069 36301 ft 477 kts 112°
2026-04-27 22:20 -16.53677 -53.54863 36522 ft 476 kts 112°
2026-04-27 22:20 -16.54902 -53.51695 36716 ft 476 kts 112°
2026-04-27 22:21 -16.56139 -53.48492 36932 ft 476 kts 112°
2026-04-27 22:21 -16.58624 -53.42050 36983 ft 481 kts 112°
2026-04-27 22:22 -16.61115 -53.35589 36975 ft 478 kts 112°
2026-04-27 22:22 -16.63577 -53.29193 36976 ft 473 kts 112°
2026-04-27 22:23 -16.66023 -53.22832 36979 ft 471 kts 112°
2026-04-27 22:23 -16.68462 -53.16482 36975 ft 470 kts 112°
2026-04-27 22:24 -16.70883 -53.10176 36970 ft 470 kts 112°
2026-04-27 22:24 -16.73277 -53.03822 36969 ft 471 kts 111°
2026-04-27 22:25 -16.75654 -52.97428 37075 ft 472 kts 111°
2026-04-27 22:25 -16.76832 -52.94258 37247 ft 463 kts 111°
2026-04-27 22:25 -16.77982 -52.91162 37569 ft 453 kts 111°
2026-04-27 22:25 -16.79115 -52.88115 37964 ft 448 kts 112°
2026-04-27 22:26 -16.80224 -52.85137 38331 ft 443 kts 112°
2026-04-27 22:26 -16.81337 -52.82145 38579 ft 441 kts 112°
2026-04-27 22:26 -16.82444 -52.79170 38808 ft 438 kts 112°
2026-04-27 22:26 -16.83544 -52.76211 38967 ft 437 kts 112°
2026-04-27 22:27 -16.84647 -52.73243 38947 ft 440 kts 112°
2026-04-27 22:27 -16.86872 -52.67254 38966 ft 445 kts 112°
2026-04-27 22:28 -16.89118 -52.61198 38972 ft 450 kts 112°
2026-04-27 22:28 -16.91389 -52.55069 38972 ft 455 kts 112°
2026-04-27 22:29 -16.93682 -52.48871 38973 ft 459 kts 112°
2026-04-27 22:29 -16.95995 -52.42616 38974 ft 464 kts 112°
2026-04-27 22:30 -16.98322 -52.36315 38977 ft 469 kts 112°
2026-04-27 22:30 -17.00676 -52.29934 38975 ft 472 kts 112°
2026-04-27 22:31 -17.03046 -52.23500 38982 ft 475 kts 112°
2026-04-27 22:31 -17.05403 -52.17095 38962 ft 468 kts 112°
2026-04-27 22:32 -17.07722 -52.10788 38976 ft 462 kts 112°
2026-04-27 22:32 -17.10025 -52.04517 38978 ft 461 kts 112°
2026-04-27 22:33 -17.12308 -51.98290 38982 ft 461 kts 112°
2026-04-27 22:33 -17.14603 -51.92026 38989 ft 461 kts 112°
2026-04-27 22:34 -17.16903 -51.85740 38998 ft 463 kts 112°
2026-04-27 22:34 -17.19208 -51.79433 38996 ft 465 kts 112°
2026-04-27 22:35 -17.21518 -51.73106 38998 ft 467 kts 112°
2026-04-27 22:35 -17.23838 -51.66744 39002 ft 469 kts 112°
2026-04-27 22:36 -17.26148 -51.60403 39004 ft 471 kts 112°
2026-04-27 22:36 -17.28480 -51.53994 38999 ft 472 kts 112°
2026-04-27 22:37 -17.30816 -51.47566 39001 ft 473 kts 112°
2026-04-27 22:37 -17.33158 -51.41114 38996 ft 474 kts 111°
2026-04-27 22:38 -17.35495 -51.34668 39011 ft 473 kts 111°
2026-04-27 22:38 -17.37825 -51.28234 38999 ft 472 kts 111°
2026-04-27 22:39 -17.39751 -51.22882 38997 ft 471 kts 111°
2026-04-27 22:39 -17.42052 -51.16465 38997 ft 470 kts 111°
2026-04-27 22:40 -17.44343 -51.10070 38997 ft 468 kts 111°
2026-04-27 22:40 -17.46629 -51.03686 38997 ft 467 kts 111°
2026-04-27 22:41 -17.48889 -50.97368 38998 ft 466 kts 111°
2026-04-27 22:41 -17.51161 -50.91010 38996 ft 465 kts 111°
2026-04-27 22:42 -17.53424 -50.84667 38996 ft 464 kts 111°
2026-04-27 22:42 -17.55688 -50.78316 38988 ft 465 kts 111°
2026-04-27 22:43 -17.57949 -50.71967 38994 ft 465 kts 111°
2026-04-27 22:43 -17.60211 -50.65607 38983 ft 466 kts 111°
2026-04-27 22:44 -17.62472 -50.59243 38984 ft 466 kts 111°
2026-04-27 22:44 -17.64721 -50.52906 38979 ft 467 kts 111°
2026-04-27 22:45 -17.66984 -50.46519 38973 ft 467 kts 111°
2026-04-27 22:45 -17.69250 -50.40120 38973 ft 468 kts 110°
2026-04-27 22:46 -17.71514 -50.33716 38970 ft 468 kts 110°
2026-04-27 22:46 -17.73776 -50.27310 38970 ft 468 kts 110°
2026-04-27 22:47 -17.76039 -50.20896 38971 ft 468 kts 110°
2026-04-27 22:47 -17.78295 -50.14493 38978 ft 467 kts 110°
2026-04-27 22:48 -17.80501 -50.08075 38971 ft 467 kts 110°
2026-04-27 22:48 -17.82653 -50.01704 38973 ft 466 kts 110°
2026-04-27 22:49 -17.84821 -49.95305 38976 ft 465 kts 110°
2026-04-27 22:49 -17.86988 -49.88919 38982 ft 464 kts 110°
2026-04-27 22:50 -17.89149 -49.82540 38978 ft 463 kts 110°
2026-04-27 22:50 -17.91300 -49.76180 38983 ft 462 kts 110°
2026-04-27 22:51 -17.93432 -49.69869 38989 ft 461 kts 110°
2026-04-27 22:51 -17.95577 -49.63510 38986 ft 461 kts 110°
2026-04-27 22:52 -17.97716 -49.57163 38990 ft 460 kts 110°
2026-04-27 22:52 -17.99836 -49.50864 38986 ft 460 kts 110°
2026-04-27 22:53 -18.01970 -49.44516 38993 ft 460 kts 110°
2026-04-27 22:53 -18.04101 -49.38168 38995 ft 461 kts 109°
2026-04-27 22:54 -18.06232 -49.31813 38993 ft 461 kts 109°
2026-04-27 22:54 -18.08364 -49.25446 38995 ft 462 kts 110°
2026-04-27 22:55 -18.10499 -49.19063 38989 ft 462 kts 110°
2026-04-27 22:55 -18.12634 -49.12685 38989 ft 463 kts 110°
2026-04-27 22:56 -18.14771 -49.06294 38989 ft 463 kts 109°
2026-04-27 22:56 -18.16894 -48.99934 38991 ft 463 kts 109°
2026-04-27 22:57 -18.19029 -48.93530 38987 ft 464 kts 109°
2026-04-27 22:57 -18.21159 -48.87131 38991 ft 463 kts 109°
2026-04-27 22:58 -18.23284 -48.80734 38995 ft 463 kts 109°
2026-04-27 22:58 -18.25409 -48.74328 38996 ft 463 kts 109°
2026-04-27 22:59 -18.27515 -48.67968 38992 ft 463 kts 109°
2026-04-27 22:59 -18.29633 -48.61569 38995 ft 463 kts 109°
2026-04-27 23:00 -18.32803 -48.51969 38999 ft 463 kts 109°
2026-04-27 23:00 -18.34911 -48.45566 39005 ft 463 kts 109°
2026-04-27 23:01 -18.37018 -48.39161 39010 ft 463 kts 109°
2026-04-27 23:01 -18.39124 -48.32750 39007 ft 463 kts 109°
2026-04-27 23:02 -18.41230 -48.26333 39008 ft 463 kts 109°
2026-04-27 23:02 -18.43334 -48.19922 39007 ft 464 kts 109°
2026-04-27 23:03 -18.45427 -48.13542 39019 ft 464 kts 109°
2026-04-27 23:03 -18.47532 -48.07116 39018 ft 464 kts 109°
2026-04-27 23:04 -18.49639 -48.00678 39011 ft 465 kts 109°
2026-04-27 23:04 -18.51742 -47.94242 39022 ft 465 kts 109°
2026-04-27 23:05 -18.53846 -47.87792 39016 ft 465 kts 109°
2026-04-27 23:05 -18.55950 -47.81335 39023 ft 465 kts 109°
2026-04-27 23:06 -18.58049 -47.74882 39019 ft 466 kts 109°
2026-04-27 23:06 -18.60151 -47.68417 39027 ft 466 kts 109°
2026-04-27 23:07 -18.62251 -47.61949 39028 ft 466 kts 109°
2026-04-27 23:07 -18.64336 -47.55517 39031 ft 466 kts 109°
2026-04-27 23:08 -18.66435 -47.49037 39027 ft 467 kts 109°
2026-04-27 23:08 -18.68175 -47.43656 39041 ft 467 kts 109°